Location: Marne
(34.0056°N, 117.9064°W)
Time: 15:01:18
(UTC+00:00)

Cosmos 2333 Rocket - Pass Details

Date: 18 January 2020
Orbit: 839 x 863 km, 70.8° (Epoch: 27 February)

Event Time Altitude Azimuth Distance (km) Brightness Sun altitude
Rises 01:23:39 0° 350° (N) 3,433 5.2 -4.0°
Reaches altitude 10° 01:26:27 10° 1° (N) 2,490 4.4 -4.5°
Maximum altitude 01:31:23 29° 61° (ENE) 1,511 3.0 -5.5°
Drops below altitude 10° 01:36:15 10° 121° (ESE) 2,464 4.3 -6.4°
Sets 01:39:00 0° 132° (SE) 3,392 5.1 -6.9°
